When you browse on this site, cookies collect data to enhance your experience and personalize the content and advertising you see.
Visit our Privacy Policy to learn more. By continuing to use the site, you agree to this use of cookies and data.
  • In Österreich
  • Länderverzeichnis
  • Für 7 Tage
  • Wassertemperatur
  • Satellitenkarten
  • Wetterkarte
  • News
  • Widgets
  • user-avatar
    Anmelden

    Stündliche Wetter Burgas

    Heute, 14 Dezember, Freitag

    Zeit Temperatur Niederschläge Wind Luftdruck Luftfeuchtigkeit
    00:00 +3°C° 0 mm 1 m/S 763 mmHg 76%
    01:00 +3°C° 0 mm 1 m/S 763 mmHg 77%
    02:00 +3°C° 0 mm 1 m/S 763 mmHg 78%
    03:00 +3°C° 0 mm 1 m/S 763 mmHg 79%
    04:00 +3°C° 0 mm 1 m/S 763 mmHg 80%
    05:00 +4°C° 0 mm 1 m/S 763 mmHg 81%
    06:00 +4°C° 0 mm 1 m/S 763 mmHg 81%
    07:00 +4°C° 0 mm 1 m/S 763 mmHg 82%
    08:00 +4°C° 0 mm 1 m/S 763 mmHg 83%
    09:00 +5°C° 0.2 mm 1 m/S 763 mmHg 82%
    10:00 +5°C° 0.2 mm 2 m/S 763 mmHg 82%
    11:00 +5°C° 0.2 mm 2 m/S 764 mmHg 81%
    12:00 +5°C° 0.2 mm 2 m/S 764 mmHg 83%
    13:00 +6°C° 0.2 mm 2 m/S 763 mmHg 85%
    14:00 +6°C° 0.2 mm 2 m/S 763 mmHg 86%
    15:00 +6°C° 0.1 mm 2 m/S 763 mmHg 89%
    16:00 +5°C° 0.1 mm 2 m/S 763 mmHg 91%
    17:00 +5°C° 0.1 mm 2 m/S 763 mmHg 93%
    18:00 +5°C° 0.1 mm 2 m/S 763 mmHg 93%
    19:00 +6°C° 0.1 mm 2 m/S 763 mmHg 93%
    20:00 +5°C° 0.1 mm 3 m/S 763 mmHg 94%
    21:00 +6°C° 0.3 mm 2 m/S 763 mmHg 94%
    22:00 +6°C° 0.3 mm 2 m/S 763 mmHg 95%
    23:00 +6°C° 0.3 mm 2 m/S 763 mmHg 95%

    Morgen, 15 Dezember, Samstag

    Zeit Temperatur Niederschläge Wind Luftdruck Luftfeuchtigkeit
    00:00 +6°C° 0.3 mm 2 m/S 763 mmHg 96%
    01:00 +7°C° 0.3 mm 2 m/S 763 mmHg 96%
    02:00 +7°C° 0.3 mm 2 m/S 762 mmHg 96%
    03:00 +7°C° 0.3 mm 2 m/S 762 mmHg 96%
    04:00 +7°C° 0.3 mm 2 m/S 762 mmHg 97%
    05:00 +8°C° 0.3 mm 2 m/S 761 mmHg 97%
    06:00 +8°C° 0.1 mm 2 m/S 761 mmHg 97%
    07:00 +8°C° 0.1 mm 2 m/S 762 mmHg 96%
    08:00 +8°C° 0.1 mm 2 m/S 762 mmHg 96%
    09:00 +9°C° 0 mm 2 m/S 762 mmHg 94%
    10:00 +10°C° 0 mm 2 m/S 762 mmHg 93%
    11:00 +10°C° 0 mm 2 m/S 762 mmHg 91%
    12:00 +12°C° 0.1 mm 2 m/S 762 mmHg 91%
    13:00 +12°C° 0.1 mm 2 m/S 761 mmHg 91%
    14:00 +12°C° 0.1 mm 2 m/S 761 mmHg 91%
    15:00 +12°C° 0.1 mm 2 m/S 761 mmHg 92%
    16:00 +12°C° 0.1 mm 2 m/S 761 mmHg 93%
    17:00 +10°C° 0.1 mm 2 m/S 761 mmHg 94%
    18:00 +10°C° 0.2 mm 2 m/S 761 mmHg 94%
    19:00 +10°C° 0.2 mm 3 m/S 761 mmHg 94%
    20:00 +10°C° 0.2 mm 3 m/S 761 mmHg 94%
    21:00 +10°C° 0 mm 3 m/S 761 mmHg 93%
    22:00 +10°C° 0 mm 3 m/S 761 mmHg 93%
    23:00 +9°C° 0 mm 3 m/S 761 mmHg 92%

    übermorgen, 16 Dezember, Sonntag

    Zeit Temperatur Niederschläge Wind Luftdruck Luftfeuchtigkeit
    00:00 +9°C° 0 mm 2 m/S 760 mmHg 92%
    01:00 +9°C° 0 mm 2 m/S 760 mmHg 92%
    02:00 +9°C° 0 mm 2 m/S 760 mmHg 92%
    03:00 +9°C° 0.4 mm 2 m/S 760 mmHg 93%
    04:00 +9°C° 0.4 mm 2 m/S 760 mmHg 94%
    05:00 +9°C° 0.4 mm 2 m/S 759 mmHg 95%
    06:00 +9°C° 0.5 mm 2 m/S 759 mmHg 95%
    07:00 +9°C° 0.5 mm 2 m/S 759 mmHg 96%
    08:00 +9°C° 0.5 mm 3 m/S 760 mmHg 96%
    09:00 +10°C° 0.2 mm 3 m/S 760 mmHg 95%
    10:00 +11°C° 0.2 mm 3 m/S 760 mmHg 93%
    11:00 +11°C° 0.2 mm 4 m/S 760 mmHg 91%
    12:00 +12°C° 0 mm 4 m/S 759 mmHg 90%
    13:00 +12°C° 0 mm 4 m/S 759 mmHg 90%
    14:00 +12°C° 0 mm 4 m/S 759 mmHg 89%
    15:00 +11°C° 0.1 mm 4 m/S 759 mmHg 91%
    16:00 +11°C° 0.1 mm 4 m/S 759 mmHg 92%
    17:00 +11°C° 0.1 mm 4 m/S 759 mmHg 94%
    18:00 +9°C° 0.1 mm 5 m/S 760 mmHg 94%
    19:00 +9°C° 0.1 mm 5 m/S 760 mmHg 94%
    20:00 +9°C° 0.1 mm 5 m/S 760 mmHg 93%
    21:00 +9°C° 0.1 mm 5 m/S 760 mmHg 93%
    22:00 +9°C° 0.1 mm 5 m/S 761 mmHg 93%
    23:00 +9°C° 0.1 mm 5 m/S 761 mmHg 93%

    17 Dezember, Montag

    Zeit Temperatur Niederschläge Wind Luftdruck Luftfeuchtigkeit
    00:00 +9°C° 0.1 mm 5 m/S 761 mmHg 93%
    01:00 +9°C° 0.1 mm 5 m/S 761 mmHg 92%
    02:00 +8°C° 0.1 mm 5 m/S 761 mmHg 92%
    03:00 +8°C° 0.1 mm 5 m/S 761 mmHg 92%
    04:00 +8°C° 0.1 mm 5 m/S 761 mmHg 92%
    05:00 +8°C° 0.1 mm 5 m/S 761 mmHg 91%
    06:00 +8°C° 0.1 mm 5 m/S 762 mmHg 91%
    07:00 +8°C° 0.1 mm 5 m/S 762 mmHg 91%
    08:00 +8°C° 0.1 mm 5 m/S 762 mmHg 91%
    09:00 +8°C° 0.1 mm 5 m/S 762 mmHg 91%
    10:00 +7°C° 0.1 mm 5 m/S 763 mmHg 90%
    11:00 +7°C° 0.1 mm 5 m/S 763 mmHg 90%
    12:00 +7°C° 0.1 mm 5 m/S 763 mmHg 89%
    13:00 +7°C° 0.1 mm 5 m/S 762 mmHg 89%
    14:00 +7°C° 0.1 mm 4 m/S 762 mmHg 88%
    15:00 +7°C° 0.1 mm 4 m/S 762 mmHg 89%
    16:00 +7°C° 0.1 mm 4 m/S 763 mmHg 89%
    17:00 +7°C° 0.1 mm 4 m/S 763 mmHg 90%
    18:00 +7°C° 0 mm 4 m/S 763 mmHg 90%
    19:00 +7°C° 0 mm 4 m/S 763 mmHg 91%
    20:00 +6°C° 0 mm 4 m/S 764 mmHg 91%
    21:00 +6°C° 0.1 mm 4 m/S 764 mmHg 92%
    22:00 +7°C° 0.1 mm 3 m/S 764 mmHg 92%
    23:00 +7°C° 0.1 mm 3 m/S 764 mmHg 92%

    18 Dezember, Dienstag

    Zeit Temperatur Niederschläge Wind Luftdruck Luftfeuchtigkeit
    00:00 +7°C° 0.1 mm 3 m/S 764 mmHg 92%
    01:00 +7°C° 0.1 mm 3 m/S 764 mmHg 93%
    02:00 +7°C° 0.1 mm 2 m/S 764 mmHg 93%
    03:00 +5°C° 0.1 mm 3 m/S 764 mmHg 93%
    04:00 +5°C° 0.1 mm 3 m/S 764 mmHg 93%
    05:00 +5°C° 0.1 mm 3 m/S 764 mmHg 94%
    06:00 +5°C° 0.1 mm 3 m/S 764 mmHg 93%
    07:00 +5°C° 0.1 mm 3 m/S 765 mmHg 93%
    08:00 +5°C° 0.1 mm 3 m/S 765 mmHg 93%
    09:00 +5°C° 0.1 mm 3 m/S 765 mmHg 90%
    10:00 +6°C° 0.1 mm 4 m/S 765 mmHg 88%
    11:00 +6°C° 0.1 mm 4 m/S 766 mmHg 86%
    12:00 +6°C° 0.1 mm 4 m/S 765 mmHg 84%
    13:00 +6°C° 0.1 mm 5 m/S 765 mmHg 83%
    14:00 +6°C° 0.1 mm 5 m/S 765 mmHg 82%
    15:00 +6°C° 0 mm 5 m/S 765 mmHg 83%
    16:00 +6°C° 0 mm 5 m/S 766 mmHg 85%
    17:00 +5°C° 0 mm 5 m/S 766 mmHg 86%
    18:00 +5°C° 0 mm 5 m/S 766 mmHg 86%
    19:00 +5°C° 0 mm 5 m/S 766 mmHg 86%
    20:00 +4°C° 0 mm 6 m/S 766 mmHg 87%
    21:00 +3°C° 0 mm 6 m/S 767 mmHg 87%
    22:00 +3°C° 0 mm 6 m/S 767 mmHg 88%
    23:00 +3°C° 0 mm 6 m/S 767 mmHg 88%

    19 Dezember, Mittwoch

    Zeit Temperatur Niederschläge Wind Luftdruck Luftfeuchtigkeit
    00:00 +2°C° 0.1 mm 6 m/S 767 mmHg 88%
    01:00 +2°C° 0.1 mm 6 m/S 767 mmHg 87%
    02:00 +2°C° 0.1 mm 7 m/S 767 mmHg 87%
    03:00 +2°C° 0.1 mm 6 m/S 767 mmHg 87%
    04:00 +1°C° 0.1 mm 6 m/S 767 mmHg 87%
    05:00 +1°C° 0.1 mm 5 m/S 767 mmHg 87%
    06:00 +1°C° 0 mm 6 m/S 767 mmHg 87%
    07:00 -1°C° 0 mm 6 m/S 767 mmHg 86%
    08:00 -1°C° 0 mm 6 m/S 768 mmHg 86%
    09:00 +1°C° 0 mm 6 m/S 768 mmHg 83%
    10:00 +1°C° 0 mm 6 m/S 768 mmHg 80%
    11:00 +1°C° 0 mm 6 m/S 768 mmHg 77%
    12:00 +2°C° 0 mm 6 m/S 768 mmHg 75%
    13:00 +2°C° 0 mm 6 m/S 768 mmHg 73%
    14:00 +3°C° 0 mm 6 m/S 767 mmHg 71%
    15:00 +2°C° 0 mm 6 m/S 768 mmHg 73%
    16:00 +1°C° 0 mm 6 m/S 768 mmHg 76%
    17:00 +1°C° 0 mm 5 m/S 768 mmHg 79%
    18:00 0°C° 0 mm 5 m/S 768 mmHg 81%
    19:00 0°C° 0 mm 4 m/S 768 mmHg 83%
    20:00 -1°C° 0 mm 4 m/S 769 mmHg 86%
    21:00 0°C° 0 mm 3 m/S 769 mmHg 86%
    22:00 0°C° 0 mm 3 m/S 769 mmHg 87%
    23:00 0°C° 0 mm 3 m/S 769 mmHg 88%
    Mehr zeigen